Flag for Bangladesh Weather past 2 weeks in Jessore, Bangladesh

Now
68 °F

Clear.


Feels Like: 68 °F
Forecast: 83 / 97 °F
Wind: 13 mph from Southwest

Location: Kunming Airport

Current Time: May 26, 2015 at 10:14:11 PM

Latest Report: May 26, 2015 at 9:00 PM


Visibility: 10 mi

Pressure: 30.01 "Hg

Humidity: 60%

Dew point: 54 °F

Location of JessoreLocation

Historic Weather in Jessore — Graph

°F

Jessore temperature yesterday

Maximum temperature yesterday: 81 °F (at 4:00 PM)
Minimum temperature yesterday: 61 °F (at 3:00 AM)
Average temperature yesterday: 70 °F

Past Weeks' High & Low Weather Summary

 TemperatureHumidityPressure
High84 °F (May 18, 12:00 PM)100% (May 22, 11:00 PM)30.21 "Hg (May 22, 11:00 PM)
Low54 °F (May 23, 4:00 AM)28% (May 18, 3:00 PM)29.92 "Hg (May 13, 3:00 PM)
Average68 °F65%30.05 "Hg
* Reported May 11 9:00 PM — May 26 9:00 PM, Jessore, Weather by CustomWeather, © 2015

Note: Actual official high and low records may vary slightly from our data, if they occured in-between our weather recording intervals... More about our weather records

Advertising

Jessore weather history for previous 24 hours

 ConditionsComfort  
Time TempWeatherWind HumidityBarometerVisibility
9:00 PM
Tue, May 26
68 °FClear.13 mph60%30.01 "Hg10 mi
8:00 PM72 °FClear.10 mph50%30.01 "Hg10 mi
7:00 PM73 °FClear.13 mph47%29.98 "Hg10 mi
6:00 PM75 °FClear.17 mph44%29.95 "Hg10 mi
5:00 PM79 °FPassing clouds.17 mph39%29.95 "HgN/A
4:00 PM81 °FPassing clouds.20 mph37%29.95 "HgN/A
3:00 PM82 °FScattered clouds.15 mph35%29.95 "HgN/A
2:00 PM82 °FScattered clouds.17 mph35%29.95 "HgN/A
1:00 PM82 °FScattered clouds.17 mph35%29.98 "HgN/A
12:00 PM79 °FScattered clouds.15 mph42%30.01 "HgN/A
11:00 AM79 °FScattered clouds.15 mph42%30.04 "HgN/A
10:00 AM75 °FScattered clouds.15 mph47%30.07 "HgN/A
9:00 AM72 °FScattered clouds.15 mph53%30.07 "HgN/A
8:00 AM70 °FSunny.20 mph60%30.09 "Hg10 mi
7:00 AM68 °FSunny.17 mph64%30.09 "Hg10 mi
6:00 AM64 °FSunny.15 mph78%30.07 "Hg10 mi
5:00 AM61 °FSunny.13 mph83%30.07 "Hg10 mi
4:00 AM63 °FClear.13 mph83%30.04 "Hg10 mi
3:00 AM63 °FClear.10 mph77%30.04 "Hg10 mi
2:00 AM63 °FClear.13 mph77%30.01 "Hg10 mi
1:00 AM64 °FClear.13 mph68%30.01 "Hg10 mi
12:00 AM64 °FClear.15 mph68%30.04 "Hg10 mi
11:00 PM
Mon, May 25
66 °FClear.13 mph64%30.04 "Hg10 mi
10:00 PM68 °FClear.20 mph56%30.07 "Hg10 mi
Weather by CustomWeather, © 2015

See weather overviewHow to use our weather pages